Weather History for Farnborough, United Kingdom

Change the Weather History Date:

Tuesday, February 12, 2013

  Actual Average (EGLL) Record (EGLL)
Temperature  
Mean Temperature 34 °F -  
Max Temperature 35 °F 48 °F 59 °F (1998)
Min Temperature 32 °F 37 °F 21 °F (2012)
Degree Days  
Heating Degree Days 32    
Moisture  
Dew Point 29 °F    
Average Humidity 80    
Maximum Humidity 87    
Minimum Humidity 66    
Precipitation  
Precipitation 0.00 in - - ()
Sea Level Pressure  
Sea Level Pressure 30.01 in    
Wind  
Wind Speed 6 mph ()    
Max Wind Speed 10 mph    
Max Gust Speed -    
Visibility 3.9 miles    
Events      
Averages and records for this station are not official NWS values.
T = Trace of Precipitation, MM = Missing Value Source: Averaged Metar Reports

Daily Weather History Graph

Daily Weather History Graph

Search for Another Location

Airport:

Trip Planner

Search our weather history database for the weather conditions in past years. The results will help you decide how hot, cold, wet, or windy it might be!

Date:

Astronomy

Feb. 12, 2013 Rise Set
Actual Time 7:21 AM GMT 5:13 PM GMT
Civil Twilight 6:47 AM GMT 5:48 PM GMT
Nautical Twilight 6:08 AM GMT 6:27 PM GMT
Astronomical Twilight 5:29 AM GMT 7:05 PM GMT
Moon 7:49 AM GMT (2/12) 8:24 PM GMT (2/12)
Length of Visible Light 11h 00m
Length of Day
9h 51m
Waxing Crescent, 6% of the Moon is Illuminated
Feb 12
Waxing Crescent
Feb 17
First Quarter
Feb 25
Full
Mar 4
Last Quarter
Mar 11
New

Hourly Weather History & Observations

Time (GMT) Temp. Windchill Dew Point Humidity Pressure Visibility Wind Dir Wind Speed Gust Speed Precip Events Conditions
2:50 AM 34 °F - 31 °F 86% 29.83 in 2 mi NE 6.9 mph - -   Overcast
5:50 AM 33 °F - 29 °F 82% 29.89 in 4 mi NNE 5.8 mph - -   Mostly Cloudy
6:50 AM 33.8 °F 27.7 °F 30.2 °F 87% 29.89 in 3.7 mi NNE 6.9 mph - N/A   Mostly Cloudy
7:20 AM 33.8 °F 27.7 °F 28.4 °F 81% 29.89 in 3.7 mi NE 6.9 mph - N/A   Mostly Cloudy
7:50 AM 33.8 °F 27.0 °F 28.4 °F 81% 29.92 in 3.7 mi North 8.1 mph - N/A   Mostly Cloudy
8:20 AM 32.0 °F 24.8 °F 28.4 °F 87% 29.95 in 4.3 mi NNE 8.1 mph - N/A   Partly Cloudy
8:50 AM 34 °F - 28 °F 69% 29.97 in 3 mi NNE 6.9 mph - -   Overcast
8:50 AM 33.8 °F 27.0 °F 28.4 °F 81% 29.95 in 4.3 mi NNE 8.1 mph - N/A   Scattered Clouds
9:20 AM 33.8 °F 27.0 °F 28.4 °F 81% 29.98 in 4.3 mi NNE 8.1 mph - N/A   Scattered Clouds
9:50 AM 33.8 °F 27.0 °F 28.4 °F 81% 29.98 in 3.7 mi NNE 8.1 mph - N/A   Scattered Clouds
10:20 AM 33.8 °F 25.8 °F 30.2 °F 87% 29.98 in 3.7 mi NE 10.4 mph - N/A   Mostly Cloudy
10:50 AM 33.8 °F 26.4 °F 28.4 °F 81% 29.98 in 3.7 mi NE 9.2 mph - N/A   Mostly Cloudy
11:20 AM 35.6 °F 29.2 °F 28.4 °F 75% 30.01 in 4.3 mi NE 8.1 mph - N/A   Mostly Cloudy
11:50 AM 35 °F - 28 °F 66% 30.01 in 4 mi NE 6.9 mph - -   Overcast
11:50 AM 35.6 °F 29.2 °F 28.4 °F 75% 30.01 in 4.3 mi NNE 8.1 mph - N/A   Mostly Cloudy
12:20 PM 33.8 °F 27.0 °F 28.4 °F 81% 29.98 in 4.3 mi NNE 8.1 mph - N/A   Mostly Cloudy
12:50 PM 33.8 °F 27.0 °F 28.4 °F 81% 30.01 in 4.3 mi NNE 8.1 mph - N/A   Mostly Cloudy
1:20 PM 33.8 °F 28.6 °F 30.2 °F 87% 30.01 in 4.3 mi NNE 5.8 mph - N/A   Mostly Cloudy
1:50 PM 33.8 °F 27.7 °F 30.2 °F 87% 30.01 in 3.7 mi NNE 6.9 mph - N/A   Partly Cloudy
2:20 PM 33.8 °F 29.6 °F 30.2 °F 87% 30.01 in 3.7 mi NNE 4.6 mph - N/A   Mostly Cloudy
2:50 PM 35 °F - 29 °F 70% 30.03 in 4 mi NNE 4.6 mph - -   Overcast
2:50 PM 33.8 °F 28.6 °F 28.4 °F 81% 30.01 in 3.7 mi North 5.8 mph - N/A   Mostly Cloudy
3:20 PM 35.6 °F 29.9 °F 30.2 °F 81% 30.04 in 3.7 mi NE 6.9 mph - N/A   Mostly Cloudy
3:50 PM 35.6 °F 30.7 °F 30.2 °F 81% 30.04 in 3.7 mi NNE 5.8 mph - N/A   Mostly Cloudy
4:20 PM 33.8 °F 29.6 °F 30.2 °F 87% 30.04 in 3.7 mi NNE 4.6 mph - N/A   Mostly Cloudy
4:50 PM 33.8 °F 29.6 °F 30.2 °F 87% 30.04 in 3.1 mi NNE 4.6 mph - N/A   Overcast
5:20 PM 33.8 °F 27.7 °F 28.4 °F 81% 30.04 in 3.7 mi NNE 6.9 mph - N/A   Overcast
5:50 PM 34 °F - 28 °F 72% 30.07 in 4 mi NNE 5.8 mph - -   Overcast
5:50 PM 33.8 °F 29.6 °F 30.2 °F 87% 30.06 in 3.7 mi NNE 4.6 mph - N/A   Overcast
6:20 PM 35.6 °F 30.7 °F 28.4 °F 75% 30.06 in 3.1 mi NNE 5.8 mph - N/A   Overcast
6:50 PM 33.8 °F 28.6 °F 28.4 °F 81% 30.09 in 4.3 mi NE 5.8 mph - N/A   Overcast
7:20 PM 33.8 °F 27.0 °F 28.4 °F 81% 30.09 in 4.3 mi NE 8.1 mph - N/A   Mostly Cloudy
7:50 PM 33.8 °F 28.6 °F 30.2 °F 87% 30.09 in 4.3 mi ENE 5.8 mph - N/A   Mostly Cloudy
8:20 PM 33.8 °F 29.6 °F 28.4 °F 81% 30.09 in 4.3 mi ENE 4.6 mph - N/A   Mostly Cloudy
8:50 PM 34 °F - 28 °F 69% 30.12 in 4 mi ENE 3.5 mph - -   Overcast
8:50 PM 33.8 °F 30.8 °F 28.4 °F 81% 30.09 in 4.3 mi NE 3.5 mph - N/A   Mostly Cloudy
9:20 PM 33.8 °F 29.6 °F 28.4 °F 81% 30.09 in 5.0 mi ENE 4.6 mph - N/A   Mostly Cloudy
11:50 PM 33 °F - 27 °F 70% 30.15 in 5 mi East 2.3 mph - -   Overcast